Weather History for Nenana, AK

Change the Weather History Date:

Thursday, August 22, 2013

  Actual Average Record
Temperature  
Mean Temperature 58 °F -  
Max Temperature 64 °F 64 °F 78 °F (2014)
Min Temperature 53 °F 42 °F 35 °F (2010)
Degree Days  
Heating Degree Days 7    
Growing Degree Days 8 (Base 50)    
Moisture  
Dew Point 48 °F    
Average Humidity 78    
Maximum Humidity 100    
Minimum Humidity 52    
Precipitation  
Precipitation 0.01 in - - ()
Sea Level Pressure  
Sea Level Pressure 29.65 in    
Wind  
Wind Speed 2 mph (ESE)    
Max Wind Speed 10 mph    
Max Gust Speed -    
Visibility 9 miles    
Events Rain    
Averages and records for this station are not official NWS values.
T = Trace of Precipitation, MM = Missing Value Source: NWS Daily Summary

Daily Weather History Graph

Daily Weather History Graph

Search for Another Location

Airport:

Trip Planner

Search our weather history database for the weather conditions in past years. The results will help you decide how hot, cold, wet, or windy it might be!

Date:

Astronomy

Aug. 22, 2013 Rise Set
Actual Time 6:08 AM AKDT 9:47 PM AKDT
Civil Twilight 5:07 AM AKDT 10:47 PM AKDT
Nautical Twilight 3:27 AM AKDT 12:23 AM AKDT
Astronomical Twilight Sun does not rise Sun does not rise
Moon 9:19 PM AKDT (8/22) 9:14 AM AKDT (8/22)
Length of Visible Light 17h 39m
Length of Day
15h 39m
Waning Gibbous, 96% of the Moon is Illuminated
Aug 22
Waning Gibbous
Aug 28
Last Quarter
Sep 5
New
Sep 12
First Quarter
Sep 19
Full

Hourly Weather History & Observations

Time (AKDT) Temp. Dew Point Humidity Pressure Visibility Wind Dir Wind Speed Gust Speed Precip Events Conditions
12:53 AM 50.0 °F 46.0 °F 86% 29.70 in 10.0 mi Calm Calm - N/A   Overcast
1:53 AM 50.0 °F 43.0 °F 77% 29.70 in 10.0 mi East 3.5 mph - N/A   Overcast
2:53 AM 51.1 °F 43.0 °F 74% 29.69 in 10.0 mi East 4.6 mph - N/A   Overcast
3:53 AM 48.9 °F 43.0 °F 80% 29.69 in 10.0 mi East 3.5 mph - N/A   Overcast
4:53 AM 48.9 °F 43.0 °F 80% 29.69 in 10.0 mi Calm Calm - N/A   Overcast
5:53 AM 48.9 °F 44.1 °F 83% 29.69 in 10.0 mi Calm Calm - N/A   Overcast
6:53 AM 48.9 °F 42.1 °F 77% 29.68 in 10.0 mi Calm Calm - N/A   Overcast
7:53 AM 48.9 °F 42.1 °F 77% 29.68 in 10.0 mi Calm Calm - N/A   Overcast
8:53 AM 50.0 °F 41.0 °F 71% 29.68 in 10.0 mi East 6.9 mph - N/A   Overcast
9:53 AM 53.1 °F 43.0 °F 69% 29.67 in 10.0 mi ENE 8.1 mph - N/A   Mostly Cloudy
10:53 AM 55.9 °F 44.1 °F 64% 29.67 in 10.0 mi East 4.6 mph - N/A   Scattered Clouds
11:53 AM 59.0 °F 46.0 °F 62% 29.66 in 10.0 mi ENE 4.6 mph - N/A   Clear
12:53 PM 62.1 °F 46.9 °F 58% 29.65 in 10.0 mi Variable 3.5 mph - N/A   Overcast
1:53 PM 64.0 °F 46.0 °F 52% 29.63 in 10.0 mi Calm Calm - N/A   Overcast
2:53 PM 64.0 °F 46.9 °F 54% 29.62 in 10.0 mi SSE 4.6 mph - N/A   Scattered Clouds
3:53 PM 63.0 °F 48.0 °F 58% 29.61 in 10.0 mi Calm Calm - 0.00 in Rain Light Rain
4:53 PM 63.0 °F 46.9 °F 56% 29.60 in 10.0 mi Calm Calm - 0.00 in   Overcast
5:53 PM 62.1 °F 48.9 °F 62% 29.60 in 10.0 mi Calm Calm - N/A   Overcast
6:53 PM 60.1 °F 48.9 °F 67% 29.60 in 10.0 mi West 5.8 mph - N/A   Overcast
7:53 PM 55.9 °F 52.0 °F 87% 29.61 in 10.0 mi WSW 3.5 mph - 0.00 in Rain Light Rain
8:53 PM 55.0 °F 53.1 °F 93% 29.60 in 5.0 mi Calm Calm - 0.03 in Rain Light Rain
9:19 PM 55.4 °F 53.6 °F 94% 29.58 in 6.0 mi Calm Calm - 0.01 in Rain Light Rain
9:35 PM 55.4 °F 53.6 °F 94% 29.57 in 9.0 mi Calm Calm - 0.03 in Rain Light Rain
9:53 PM 54.0 °F 53.1 °F 97% 29.59 in 8.0 mi Calm Calm - 0.04 in Rain Light Rain
10:40 PM 53.6 °F 53.6 °F 100% 29.56 in 7.0 mi SSE 3.5 mph - 0.02 in Rain Light Rain
10:53 PM 54.0 °F 53.1 °F 97% 29.58 in 9.0 mi Calm Calm - 0.03 in Rain Light Rain
11:53 PM 53.1 °F 52.0 °F 96% 29.56 in 6.0 mi Variable 4.6 mph - 0.04 in Rain Light Rain